TimePDT,TemperatureF,Dew PointF,Humidity,Sea Level PressureIn,VisibilityMPH,Wind Direction,Wind SpeedMPH,Gust SpeedMPH,PrecipitationIn,Events,Conditions,WindDirDegrees,DateUTC
12:53 AM,48.0,30.9,52,30.13,10.0,Calm,Calm,-,N/A,,Mostly Cloudy,0,2013-03-25 07:53:00
1:53 AM,45.0,28.9,53,30.12,10.0,Calm,Calm,-,N/A,,Partly Cloudy,0,2013-03-25 08:53:00
2:53 AM,42.1,28.0,58,30.11,10.0,Calm,Calm,-,N/A,,Clear,0,2013-03-25 09:53:00
3:53 AM,39.2,28.4,65,30.10,10.0,Calm,Calm,-,N/A,,Clear,0,2013-03-25 10:53:00
4:53 AM,39.9,28.9,65,30.09,10.0,Calm,Calm,-,N/A,,Clear,0,2013-03-25 11:53:00
5:53 AM,39.0,28.9,67,30.09,10.0,Calm,Calm,-,N/A,,Clear,0,2013-03-25 12:53:00
6:53 AM,37.0,28.0,70,30.09,10.0,Calm,Calm,-,N/A,,Clear,0,2013-03-25 13:53:00
7:53 AM,39.9,30.0,68,30.09,10.0,Calm,Calm,-,N/A,,Clear,0,2013-03-25 14:53:00
8:53 AM,46.0,32.0,58,30.09,10.0,Calm,Calm,-,N/A,,Clear,0,2013-03-25 15:53:00
9:53 AM,50.0,27.0,41,30.08,10.0,NNW,3.5,-,N/A,,Clear,330,2013-03-25 16:53:00
10:53 AM,53.1,28.0,38,30.06,10.0,Variable,4.6,-,N/A,,Clear,0,2013-03-25 17:53:00
11:53 AM,55.0,28.0,35,30.05,10.0,NNW,5.8,-,N/A,,Scattered Clouds,330,2013-03-25 18:53:00
12:53 PM,55.9,27.0,33,30.03,10.0,NW,6.9,-,N/A,,Mostly Cloudy,310,2013-03-25 19:53:00
1:53 PM,57.9,28.9,33,30.01,10.0,Variable,4.6,-,N/A,,Mostly Cloudy,0,2013-03-25 20:53:00
2:53 PM,59.0,27.0,29,29.99,10.0,NW,6.9,-,N/A,,Mostly Cloudy,310,2013-03-25 21:53:00
3:53 PM,60.1,26.1,27,29.97,10.0,NW,9.2,-,N/A,,Mostly Cloudy,320,2013-03-25 22:53:00
4:53 PM,61.0,26.1,26,29.95,10.0,WNW,8.1,-,N/A,,Mostly Cloudy,300,2013-03-25 23:53:00
5:53 PM,59.0,26.1,28,29.94,10.0,WNW,6.9,-,N/A,,Scattered Clouds,300,2013-03-26 00:53:00
6:53 PM,57.9,27.0,31,29.94,10.0,NW,6.9,-,N/A,,Mostly Cloudy,310,2013-03-26 01:53:00
7:53 PM,55.0,28.9,37,29.94,10.0,WNW,3.5,-,N/A,,Mostly Cloudy,300,2013-03-26 02:53:00
8:53 PM,54.0,33.1,45,29.96,10.0,NW,3.5,-,N/A,,Overcast,310,2013-03-26 03:53:00
9:53 PM,53.1,34.0,48,29.96,10.0,NW,3.5,-,N/A,,Overcast,320,2013-03-26 04:53:00
10:53 PM,53.1,34.0,48,29.96,10.0,Calm,Calm,-,N/A,,Overcast,0,2013-03-26 05:53:00
11:53 PM,51.1,35.1,54,29.97,10.0,NW,4.6,-,N/A,,Overcast,320,2013-03-26 06:53:00